^^

Weather Underground History

Daily Summary for February 4, 2018 Units:  Metric    English   Both
Daily Weekly Monthly Yearly
  High: Low: Average:
Temperature: 9 °C 3 °C 5.8 °C
Dew Point: 7 °C 1 °C 3.9 °C
Humidity: 95% 82% 88%
Wind Speed: 47km/h 0km/h 12.3km/h
Wind Gust: 66km/h - -
Wind- - SW
Pressure: 995.9 hPa 983.1 hPa -
Precipitation: 1.8 mm    
 
 
Tabular Data for February 4, 2018
Time Temperature Dew Point Pressure Wind Wind Speed Wind Gust Humidity Rainfall Rate (Hourly) solar
00:02 7 °C 4 °C 995.3 hPa SW 9 km/h 14 km/h 85% 0.0 mm 0 W/m2
00:08 7 °C 4 °C 995.6 hPa SW 6 km/h 11 km/h 85% 0.0 mm 0 W/m2
00:14 7 °C 4 °C 995.9 hPa WSW 5 km/h 11 km/h 85% 0.0 mm 0 W/m2
00:16 7 °C 4 °C 995.9 hPa SW 11 km/h 11 km/h 85% 0.0 mm 0 W/m2
00:22 7 °C 4 °C 995.9 hPa SW 7 km/h 18 km/h 84% 0.0 mm 0 W/m2
00:29 7 °C 4 °C 995.6 hPa WSW 10 km/h 13 km/h 84% 0.0 mm 0 W/m2
00:34 7 °C 4 °C 995.3 hPa SW 5 km/h 13 km/h 84% 0.0 mm 0 W/m2
00:35 7 °C 4 °C 995.3 hPa SW 8 km/h 13 km/h 84% 0.0 mm 0 W/m2
00:42 7 °C 4 °C 995.3 hPa SW 6 km/h 13 km/h 84% 0.0 mm 0 W/m2
00:48 7 °C 4 °C 994.9 hPa SW 6 km/h 11 km/h 84% 0.0 mm 0 W/m2
00:54 7 °C 4 °C 994.9 hPa SW 7 km/h 13 km/h 84% 0.0 mm 0 W/m2
00:59 7 °C 4 °C 995.3 hPa WSW 6 km/h 13 km/h 84% 0.0 mm 0 W/m2
01:00 7 °C 4 °C 995.3 hPa WSW 8 km/h 8 km/h 84% 0.0 mm 0 W/m2
01:08 7 °C 4 °C 995.6 hPa WSW 6 km/h 10 km/h 84% 0.0 mm 0 W/m2
01:12 7 °C 4 °C 995.9 hPa SW 5 km/h 11 km/h 84% 0.0 mm 0 W/m2
01:18 7 °C 4 °C 995.6 hPa SW 2 km/h 6 km/h 84% 0.0 mm 0 W/m2
01:21 7 °C 4 °C 995.3 hPa SW 6 km/h 10 km/h 84% 0.0 mm 0 W/m2
01:28 7 °C 4 °C 995.3 hPa SW 3 km/h 8 km/h 84% 0.0 mm 0 W/m2
01:34 7 °C 4 °C 995.3 hPa SW 8 km/h 14 km/h 84% 0.0 mm 0 W/m2
01:37 7 °C 4 °C 995.6 hPa SW 8 km/h 13 km/h 84% 0.0 mm 0 W/m2
01:43 7 °C 4 °C 995.6 hPa SW 8 km/h 16 km/h 84% 0.0 mm 0 W/m2
01:49 7 °C 4 °C 995.3 hPa SW 6 km/h 14 km/h 85% 0.0 mm 0 W/m2
01:51 6 °C 4 °C 995.3 hPa SW 11 km/h 11 km/h 85% 0.0 mm 0 W/m2
01:55 6 °C 4 °C 994.9 hPa SW 8 km/h 19 km/h 85% 0.0 mm 0 W/m2
02:02 6 °C 4 °C 994.9 hPa West 14 km/h 18 km/h 85% 0.0 mm 0 W/m2
02:07 6 °C 4 °C 994.9 hPa West 15 km/h 23 km/h 86% 0.0 mm 0 W/m2
02:12 6 °C 4 °C 994.6 hPa WSW 14 km/h 26 km/h 86% 0.0 mm 0 W/m2
02:18 6 °C 4 °C 994.6 hPa WSW 19 km/h 23 km/h 86% 0.0 mm 0 W/m2
02:24 6 °C 4 °C 994.2 hPa WSW 14 km/h 23 km/h 86% 0.0 mm 0 W/m2
02:29 6 °C 4 °C 994.6 hPa West 10 km/h 23 km/h 86% 0.0 mm 0 W/m2
02:32 6 °C 4 °C 994.6 hPa West 12 km/h 24 km/h 86% 0.0 mm 0 W/m2
02:36 6 °C 4 °C 994.6 hPa SW 8 km/h 19 km/h 86% 0.0 mm 0 W/m2
02:42 6 °C 4 °C 994.6 hPa WSW 10 km/h 16 km/h 86% 0.0 mm 0 W/m2
02:49 6 °C 4 °C 994.6 hPa WSW 11 km/h 21 km/h 86% 0.0 mm 0 W/m2
02:50 6 °C 4 °C 994.6 hPa West 11 km/h 18 km/h 86% 0.0 mm 0 W/m2
02:55 6 °C 4 °C 994.6 hPa WSW 8 km/h 14 km/h 86% 0.0 mm 0 W/m2
03:00 6 °C 4 °C 994.6 hPa WSW 8 km/h 14 km/h 86% 0.0 mm 0 W/m2
03:05 6 °C 4 °C 994.2 hPa SW 8 km/h 14 km/h 86% 0.0 mm 0 W/m2
03:10 6 °C 4 °C 994.2 hPa WSW 5 km/h 16 km/h 86% 0.0 mm 0 W/m2
03:16 6 °C 4 °C 994.2 hPa SW 7 km/h 14 km/h 86% 0.0 mm 0 W/m2
03:22 6 °C 4 °C 993.9 hPa WSW 7 km/h 14 km/h 86% 0.0 mm 0 W/m2
03:27 6 °C 4 °C 993.9 hPa WSW 8 km/h 11 km/h 86% 0.0 mm 0 W/m2
03:33 6 °C 4 °C 993.6 hPa SW 13 km/h 16 km/h 87% 0.0 mm 0 W/m2
03:38 6 °C 4 °C 993.2 hPa SW 8 km/h 16 km/h 86% 0.0 mm 0 W/m2
03:44 6 °C 4 °C 993.2 hPa WSW 8 km/h 16 km/h 87% 0.0 mm 0 W/m2
03:45 6 °C 4 °C 993.2 hPa WSW 11 km/h 16 km/h 87% 0.0 mm 0 W/m2
03:50 6 °C 4 °C 993.6 hPa SW 10 km/h 11 km/h 87% 0.0 mm 0 W/m2
03:55 6 °C 4 °C 993.6 hPa SW 10 km/h 13 km/h 87% 0.0 mm 0 W/m2
04:00 6 °C 4 °C 993.6 hPa SW 8 km/h 14 km/h 87% 0.0 mm 0 W/m2
04:05 6 °C 4 °C 993.6 hPa SW 8 km/h 8 km/h 87% 0.0 mm 0 W/m2
04:10 6 °C 4 °C 993.6 hPa SW 5 km/h 6 km/h 87% 0.0 mm 0 W/m2
04:15 6 °C 4 °C 993.6 hPa SW 3 km/h 6 km/h 87% 0.0 mm 0 W/m2
04:20 6 °C 4 °C 993.2 hPa SSW 2 km/h 8 km/h 87% 0.0 mm 0 W/m2
04:25 6 °C 4 °C 993.2 hPa South 2 km/h 6 km/h 87% 0.0 mm 0 W/m2
04:30 6 °C 4 °C 993.2 hPa SSW 3 km/h 10 km/h 87% 0.0 mm 0 W/m2
04:35 6 °C 4 °C 993.2 hPa SSW 3 km/h 10 km/h 87% 0.0 mm 0 W/m2
04:40 6 °C 4 °C 993.2 hPa SW 5 km/h 8 km/h 87% 0.0 mm 0 W/m2
04:45 6 °C 4 °C 993.2 hPa SW 5 km/h 6 km/h 87% 0.0 mm 0 W/m2
04:50 6 °C 4 °C 993.2 hPa SW 5 km/h   87% 0.0 mm 0 W/m2
04:55 6 °C 4 °C 993.2 hPa SW 3 km/h 6 km/h 87% 0.0 mm 0 W/m2
05:00 6 °C 4 °C 993.2 hPa SW 2 km/h 6 km/h 88% 0.0 mm 0 W/m2
05:05 6 °C 4 °C 992.9 hPa SW 2 km/h 6 km/h 88% 0.0 mm 0 W/m2
05:10 6 °C 4 °C 992.9 hPa SW 2 km/h 5 km/h 88% 0.0 mm 0 W/m2
05:15 6 °C 4 °C 992.9 hPa SSW 2 km/h   88% 0.0 mm 0 W/m2
05:20 6 °C 4 °C 992.5 hPa SSW 2 km/h 5 km/h 88% 0.0 mm 0 W/m2
05:25 6 °C 4 °C 992.9 hPa South 2 km/h 5 km/h 88% 0.0 mm 0 W/m2
05:30 6 °C 4 °C 992.9 hPa South 2 km/h   92% 0.0 mm 0 W/m2
05:35 6 °C 4 °C 992.5 hPa SSW 2 km/h 6 km/h 88% 0.0 mm 0 W/m2
05:40 6 °C 4 °C 992.5 hPa SSW 3 km/h 8 km/h 88% 0.0 mm 0 W/m2
05:45 6 °C 4 °C 992.5 hPa SW 3 km/h   88% 0.0 mm 0 W/m2
05:50 6 °C 4 °C 992.2 hPa SW 2 km/h 3 km/h 88% 0.0 mm 0 W/m2
05:55 6 °C 4 °C 992.2 hPa SW 2 km/h 8 km/h 88% 0.0 mm 0 W/m2
06:00 6 °C 4 °C 992.5 hPa SW 3 km/h 6 km/h 88% 0.0 mm 0 W/m2
06:05 6 °C 4 °C 992.2 hPa SW 3 km/h   88% 0.0 mm 0 W/m2
06:10 6 °C 4 °C 991.9 hPa SW 2 km/h   88% 0.0 mm 0 W/m2
06:15 6 °C 4 °C 991.5 hPa Calm   5 km/h 88% 0.0 mm 0 W/m2
06:20 6 °C 4 °C 991.5 hPa SW 2 km/h 6 km/h 88% 0.0 mm 0 W/m2
06:25 6 °C 4 °C 991.5 hPa SW 3 km/h 8 km/h 89% 0.0 mm 0 W/m2
06:30 6 °C 4 °C 991.2 hPa SW 3 km/h 6 km/h 89% 0.0 mm 0 W/m2
06:35 6 °C 4 °C 990.9 hPa SW 3 km/h 5 km/h 89% 0.0 mm 0 W/m2
06:40 6 °C 4 °C 990.9 hPa SSW 3 km/h 10 km/h 89% 0.0 mm 0 W/m2
06:45 6 °C 4 °C 990.9 hPa South 5 km/h   90% 0.0 mm 0 W/m2
06:50 6 °C 4 °C 990.9 hPa SSE 5 km/h 11 km/h 90% 0.0 mm 0 W/m2
06:55 5 °C 4 °C 990.9 hPa SSE 5 km/h 6 km/h 90% 0.0 mm 0 W/m2
07:00 5 °C 4 °C 990.5 hPa South 5 km/h 6 km/h 90% 0.0 mm 0 W/m2
07:05 5 °C 4 °C 990.5 hPa South 6 km/h 8 km/h 91% 0.0 mm 0 W/m2
07:10 5 °C 4 °C 990.5 hPa South 6 km/h 13 km/h 91% 0.0 mm 0 W/m2
07:15 5 °C 4 °C 990.5 hPa South 6 km/h 13 km/h 91% 0.0 mm 0 W/m2
07:20 5 °C 4 °C 990.2 hPa South 8 km/h 11 km/h 91% 2.3 mm 0 W/m2
07:25 5 °C 4 °C 990.2 hPa South 8 km/h 8 km/h 91% 2.3 mm 0 W/m2
07:30 5 °C 4 °C 990.2 hPa South 6 km/h 10 km/h 92% 1.3 mm 0 W/m2
07:35 5 °C 4 °C 990.2 hPa South 8 km/h 11 km/h 92% 0.8 mm 0 W/m2
07:40 5 °C 3 °C 990.2 hPa SSE 6 km/h   92% 0.0 mm 0 W/m2
07:45 4 °C 3 °C 989.8 hPa SSE 5 km/h 8 km/h 92% 0.0 mm 0 W/m2
07:50 4 °C 3 °C 989.5 hPa SSE 6 km/h 13 km/h 92% 0.0 mm 0 W/m2
07:55 4 °C 3 °C 989.5 hPa SE 8 km/h 14 km/h 92% 0.0 mm 0 W/m2
08:00 4 °C 3 °C 989.5 hPa SE 6 km/h   92% 0.0 mm 0 W/m2
08:05 4 °C 3 °C 989.2 hPa SE 5 km/h 10 km/h 92% 0.0 mm 0 W/m2
08:10 4 °C 3 °C 989.2 hPa SE 6 km/h 10 km/h 92% 0.0 mm 0 W/m2
08:15 4 °C 3 °C 988.8 hPa SE 8 km/h 8 km/h 93% 0.0 mm 0 W/m2
08:20 4 °C 3 °C 988.8 hPa SE 6 km/h 10 km/h 93% 0.0 mm 0 W/m2
08:25 4 °C 3 °C 988.8 hPa SSE 6 km/h 10 km/h 93% 0.0 mm 0 W/m2
08:30 4 °C 3 °C 988.5 hPa SE 8 km/h 13 km/h 93% 0.0 mm 0 W/m2
08:35 4 °C 3 °C 988.8 hPa SSE 10 km/h 13 km/h 93% 0.0 mm 0 W/m2
08:40 4 °C 3 °C 988.5 hPa SSE 10 km/h 11 km/h 93% 0.0 mm 0 W/m2
08:45 4 °C 3 °C 988.5 hPa SSE 10 km/h 11 km/h 93% 0.0 mm 7 W/m2
08:50 4 °C 3 °C 988.1 hPa SE 10 km/h 10 km/h 93% 0.0 mm 11 W/m2
08:55 4 °C 3 °C 987.8 hPa SE 10 km/h 14 km/h 93% 0.0 mm 12 W/m2
09:08 4 °C 3 °C 987.8 hPa SSE 10 km/h 10 km/h 93% 0.0 mm 14 W/m2
09:13 4 °C 4 °C 987.8 hPa SSE 8 km/h 16 km/h 94% 0.8 mm 25 W/m2
09:18 5 °C 4 °C 987.8 hPa SSE 8 km/h 18 km/h 94% 0.8 mm 18 W/m2
09:23 5 °C 4 °C 987.8 hPa South 13 km/h 14 km/h 94% 0.0 mm 30 W/m2
09:25 5 °C 4 °C 987.8 hPa SE 14 km/h 16 km/h 94% 0.0 mm 33 W/m2
09:30 5 °C 4 °C 987.5 hPa SE 11 km/h 18 km/h 94% 0.0 mm 32 W/m2
09:36 5 °C 4 °C 987.1 hPa SE 9 km/h 23 km/h 94% 0.0 mm 39 W/m2
09:43 5 °C 4 °C 987.1 hPa SE 12 km/h 21 km/h 94% 0.0 mm 53 W/m2
09:48 5 °C 4 °C 987.1 hPa SE 10 km/h 19 km/h 94% 0.0 mm 40 W/m2
09:51 5 °C 4 °C 987.1 hPa SSE 7 km/h 13 km/h 94% 0.0 mm 49 W/m2
09:56 5 °C 4 °C 987.1 hPa SE 16 km/h 21 km/h 94% 0.0 mm 49 W/m2
10:02 5 °C 4 °C 986.8 hPa SE 10 km/h 16 km/h 94% 0.0 mm 42 W/m2
10:07 5 °C 4 °C 986.8 hPa SE 19 km/h 21 km/h 94% 0.0 mm 25 W/m2
10:12 5 °C 4 °C 986.5 hPa SSE 14 km/h 19 km/h 94% 0.0 mm 21 W/m2
10:17 5 °C 4 °C 986.5 hPa SE 13 km/h 16 km/h 94% 0.0 mm 21 W/m2
10:24 5 °C 4 °C 986.5 hPa SSE 6 km/h 18 km/h 94% 0.0 mm 19 W/m2
10:26 5 °C 4 °C 986.1 hPa South 8 km/h 13 km/h 94% 0.0 mm 14 W/m2
10:33 5 °C 4 °C 986.1 hPa South 4 km/h 16 km/h 94% 0.0 mm 12 W/m2
10:38 5 °C 4 °C 986.1 hPa South 10 km/h 14 km/h 94% 0.0 mm 18 W/m2
10:42 5 °C 4 °C 985.8 hPa South 5 km/h 13 km/h 94% 0.0 mm 25 W/m2
10:47 5 °C 4 °C 985.8 hPa South 6 km/h 10 km/h 94% 0.0 mm 23 W/m2
10:54 6 °C 4 °C 985.8 hPa South 8 km/h 10 km/h 94% 0.0 mm 11 W/m2
10:59 6 °C 4 °C 985.4 hPa South 6 km/h 14 km/h 94% 0.0 mm 12 W/m2
11:01 6 °C 4 °C 985.4 hPa South 6 km/h 10 km/h 94% 0.0 mm 9 W/m2
11:08 6 °C 4 °C 985.4 hPa South 3 km/h 10 km/h 94% 0.0 mm 11 W/m2
11:12 6 °C 4 °C 985.4 hPa SSW 6 km/h 13 km/h 94% 0.0 mm 21 W/m2
11:17 6 °C 5 °C 985.4 hPa Calm   6 km/h 95% 0.0 mm 44 W/m2
11:22 6 °C 5 °C 985.1 hPa SSW 5 km/h 10 km/h 95% 0.0 mm 67 W/m2
11:29 6 °C 5 °C 984.8 hPa SSW 8 km/h 10 km/h 95% 0.0 mm 56 W/m2
11:34 6 °C 6 °C 984.4 hPa SSW 6 km/h 8 km/h 95% 0.0 mm 100 W/m2
11:38 6 °C 6 °C 984.4 hPa SW 5 km/h 13 km/h 95% 0.0 mm 102 W/m2
11:43 7 °C 6 °C 984.1 hPa WSW 6 km/h 13 km/h 95% 0.0 mm 120 W/m2
11:46 7 °C 6 °C 984.4 hPa WSW 5 km/h 11 km/h 95% 0.0 mm 211 W/m2
11:53 7 °C 6 °C 984.1 hPa WSW 9 km/h 13 km/h 95% 0.0 mm 60 W/m2
11:59 7 °C 6 °C 984.1 hPa WSW 9 km/h 13 km/h 95% 0.0 mm 84 W/m2
12:04 7 °C 6 °C 984.1 hPa SW 8 km/h 18 km/h 95% 0.0 mm 58 W/m2
12:05 7 °C 6 °C 984.1 hPa SW 10 km/h 18 km/h 95% 0.0 mm 58 W/m2
12:10 7 °C 7 °C 984.1 hPa WSW 10 km/h 18 km/h 95% 0.0 mm 67 W/m2
12:16 7 °C 7 °C 983.8 hPa SW 10 km/h 18 km/h 95% 0.0 mm 74 W/m2
12:21 8 °C 7 °C 983.8 hPa SSW 13 km/h 14 km/h 95% 0.0 mm 67 W/m2
12:28 8 °C 7 °C 983.8 hPa SW 18 km/h 27 km/h 95% 0.0 mm 83 W/m2
12:34 8 °C 7 °C 983.8 hPa SW 22 km/h 26 km/h 95% 0.0 mm 70 W/m2
12:35 8 °C 7 °C 983.8 hPa SW 18 km/h 19 km/h 95% 0.0 mm 67 W/m2
12:40 8 °C 7 °C 983.4 hPa SW 16 km/h 21 km/h 95% 0.0 mm 72 W/m2
12:49 8 °C 7 °C 983.4 hPa WSW 13 km/h 24 km/h 95% 0.0 mm 67 W/m2
12:53 8 °C 7 °C 983.1 hPa WSW 20 km/h 26 km/h 95% 0.0 mm 83 W/m2
12:56 8 °C 7 °C 983.1 hPa SW 10 km/h 21 km/h 95% 0.0 mm 98 W/m2
13:01 8 °C 7 °C 983.1 hPa WSW 19 km/h 19 km/h 95% 0.0 mm 91 W/m2
13:06 8 °C 7 °C 983.1 hPa SW 19 km/h 27 km/h 95% 0.0 mm 183 W/m2
13:14 8 °C 7 °C 983.1 hPa WSW 15 km/h 24 km/h 94% 0.0 mm 127 W/m2
13:17 8 °C 7 °C 983.1 hPa West 16 km/h 29 km/h 94% 0.0 mm 109 W/m2
13:22 8 °C 7 °C 983.1 hPa WSW 18 km/h 23 km/h 94% 0.0 mm 171 W/m2
13:29 8 °C 7 °C 983.1 hPa WSW 16 km/h 29 km/h 94% 0.0 mm 171 W/m2
13:34 8 °C 7 °C 983.4 hPa WSW 19 km/h 21 km/h 94% 0.0 mm 169 W/m2
13:39 8 °C 7 °C 983.1 hPa SW 16 km/h 18 km/h 93% 0.0 mm 176 W/m2
13:42 8 °C 7 °C 983.4 hPa WSW 18 km/h 24 km/h 93% 0.0 mm 174 W/m2
13:49 8 °C 7 °C 983.4 hPa WSW 14 km/h 26 km/h 93% 0.0 mm 156 W/m2
13:54 8 °C 7 °C 983.4 hPa WSW 13 km/h 26 km/h 92% 0.0 mm 151 W/m2
13:59 8 °C 7 °C 983.4 hPa WSW 10 km/h 16 km/h 92% 0.0 mm 95 W/m2
14:04 8 °C 7 °C 983.4 hPa West 18 km/h 26 km/h 91% 0.0 mm 95 W/m2
14:06 8 °C 7 °C 983.4 hPa West 16 km/h 31 km/h 91% 0.0 mm 139 W/m2
14:11 9 °C 7 °C 983.4 hPa WSW 14 km/h 21 km/h 91% 0.0 mm 160 W/m2
14:19 9 °C 7 °C 983.4 hPa WSW 17 km/h 27 km/h 90% 0.0 mm 167 W/m2
14:24 9 °C 7 °C 983.4 hPa WSW 18 km/h 27 km/h 90% 0.0 mm 90 W/m2
14:27 9 °C 7 °C 983.4 hPa WSW 14 km/h 24 km/h 90% 0.0 mm 46 W/m2
14:32 9 °C 7 °C 983.4 hPa West 18 km/h 32 km/h 90% 0.0 mm 21 W/m2
14:39 8 °C 7 °C 983.4 hPa WSW 13 km/h 27 km/h 89% 0.0 mm 28 W/m2
14:42 8 °C 7 °C 983.4 hPa WSW 26 km/h 31 km/h 90% 0.0 mm 39 W/m2
14:45 8 °C 7 °C 983.4 hPa SW 16 km/h 26 km/h 90% 0.0 mm 18 W/m2
14:54 8 °C 7 °C 983.8 hPa WSW 19 km/h 26 km/h 90% 0.0 mm 9 W/m2
14:57 8 °C 7 °C 983.8 hPa WSW 16 km/h 34 km/h 91% 0.0 mm 14 W/m2
15:02 8 °C 7 °C 984.1 hPa WSW 24 km/h 27 km/h 92% 0.0 mm 0 W/m2
15:07 8 °C 6 °C 984.4 hPa WSW 21 km/h 39 km/h 90% 1.3 mm 14 W/m2
15:10 7 °C 6 °C 984.4 hPa WNW 18 km/h 34 km/h 89% 1.3 mm 74 W/m2
15:17 7 °C 5 °C 984.4 hPa West 31 km/h 39 km/h 87% 1.0 mm 47 W/m2
15:24 6 °C 4 °C 984.8 hPa West 19 km/h 37 km/h 85% 0.0 mm 19 W/m2
15:29 6 °C 4 °C 984.8 hPa West 29 km/h 42 km/h 85% 0.0 mm 14 W/m2
15:30 6 °C 4 °C 984.8 hPa West 16 km/h 26 km/h 85% 0.0 mm 9 W/m2
15:36 6 °C 3 °C 985.1 hPa West 23 km/h 47 km/h 85% 0.0 mm 5 W/m2
15:41 6 °C 3 °C 985.4 hPa SW 16 km/h 35 km/h 85% 0.0 mm 0 W/m2
15:46 6 °C 3 °C 985.4 hPa WNW 34 km/h 42 km/h 85% 0.0 mm 0 W/m2
15:54 6 °C 3 °C 985.4 hPa WNW 25 km/h 48 km/h 83% 0.0 mm 0 W/m2
15:59 6 °C 3 °C 985.8 hPa WNW 26 km/h 48 km/h 83% 0.0 mm 0 W/m2
16:04 6 °C 3 °C 985.8 hPa West 42 km/h 58 km/h 83% 0.0 mm 0 W/m2
16:09 6 °C 3 °C 986.1 hPa West 31 km/h 66 km/h 83% 0.0 mm 0 W/m2
16:14 6 °C 3 °C 986.1 hPa West 47 km/h 56 km/h 82% 0.0 mm 0 W/m2
16:19 6 °C 3 °C 986.1 hPa WSW 27 km/h 42 km/h 83% 0.0 mm 0 W/m2
16:22 6 °C 3 °C 986.1 hPa West 39 km/h 42 km/h 83% 0.0 mm 0 W/m2
16:27 6 °C 3 °C 986.5 hPa West 35 km/h 51 km/h 83% 0.0 mm 0 W/m2
16:31 6 °C 3 °C 986.5 hPa West 26 km/h 43 km/h 84% 0.0 mm 0 W/m2
16:38 6 °C 3 °C 986.5 hPa West 30 km/h 55 km/h 85% 0.0 mm 0 W/m2
16:44 6 °C 3 °C 986.8 hPa West 29 km/h 48 km/h 85% 0.0 mm 0 W/m2
16:49 6 °C 3 °C 986.8 hPa West 40 km/h 51 km/h 86% 0.0 mm 0 W/m2
16:50 6 °C 3 °C 986.8 hPa SW 23 km/h 51 km/h 86% 0.0 mm 0 W/m2
16:59 6 °C 3 °C 987.1 hPa West 28 km/h 48 km/h 86% 0.0 mm 0 W/m2
17:04 6 °C 3 °C 987.1 hPa WSW 26 km/h 37 km/h 86% 0.0 mm 0 W/m2
17:07 6 °C 3 °C 987.1 hPa West 29 km/h 37 km/h 86% 0.0 mm 0 W/m2
17:14 6 °C 3 °C 987.5 hPa West 32 km/h 50 km/h 85% 0.0 mm 0 W/m2
17:19 6 °C 3 °C 987.5 hPa West 41 km/h 48 km/h 85% 0.0 mm 0 W/m2
17:20 6 °C 3 °C 987.5 hPa WSW 31 km/h 47 km/h 85% 0.0 mm 0 W/m2
17:28 6 °C 3 °C 987.5 hPa WSW 27 km/h 48 km/h 85% 0.0 mm 0 W/m2
17:33 6 °C 3 °C 987.5 hPa WSW 32 km/h 39 km/h 84% 0.0 mm 0 W/m2
17:38 6 °C 3 °C 987.5 hPa West 31 km/h 47 km/h 84% 0.0 mm 0 W/m2
17:42 6 °C 3 °C 987.8 hPa West 39 km/h 40 km/h 85% 0.0 mm 0 W/m2
17:48 6 °C 3 °C 987.8 hPa West 37 km/h 47 km/h 85% 0.0 mm 0 W/m2
17:53 6 °C 3 °C 987.8 hPa West 24 km/h 47 km/h 86% 0.0 mm 0 W/m2
17:58 6 °C 3 °C 987.8 hPa West 27 km/h 37 km/h 87% 0.0 mm 0 W/m2
18:04 6 °C 3 °C 987.8 hPa West 33 km/h 43 km/h 87% 0.0 mm 0 W/m2
18:09 6 °C 3 °C 987.8 hPa West 35 km/h 51 km/h 86% 0.0 mm 0 W/m2
18:14 6 °C 3 °C 987.8 hPa West 16 km/h 32 km/h 85% 0.0 mm 0 W/m2
18:16 6 °C 3 °C 987.8 hPa WNW 24 km/h 37 km/h 85% 0.0 mm 0 W/m2
18:21 6 °C 3 °C 987.8 hPa WSW 29 km/h 37 km/h 85% 0.0 mm 0 W/m2
18:26 6 °C 3 °C 987.8 hPa WSW 29 km/h 40 km/h 85% 0.0 mm 0 W/m2
18:31 6 °C 3 °C 987.8 hPa WSW 42 km/h 42 km/h 84% 0.0 mm 0 W/m2
18:37 6 °C 3 °C 987.8 hPa West 29 km/h 42 km/h 84% 0.0 mm 0 W/m2
18:42 6 °C 3 °C 988.1 hPa WNW 23 km/h 40 km/h 83% 0.0 mm 0 W/m2
18:47 6 °C 3 °C 987.8 hPa WNW 42 km/h 42 km/h 83% 0.0 mm 0 W/m2
18:52 6 °C 3 °C 987.8 hPa West 26 km/h 42 km/h 83% 0.0 mm 0 W/m2
18:58 6 °C 3 °C 988.1 hPa WNW 23 km/h 39 km/h 83% 0.0 mm 0 W/m2
19:03 6 °C 3 °C 988.1 hPa SW 23 km/h 32 km/h 83% 0.0 mm 0 W/m2
19:08 6 °C 3 °C 988.1 hPa West 21 km/h 47 km/h 83% 0.0 mm 0 W/m2
19:13 6 °C 3 °C 988.5 hPa West 22 km/h 35 km/h 83% 0.0 mm 0 W/m2
19:18 6 °C 3 °C 988.5 hPa WSW 21 km/h 35 km/h 83% 0.0 mm 0 W/m2
19:23 6 °C 3 °C 988.5 hPa West 18 km/h 35 km/h 83% 0.0 mm 0 W/m2
19:29 5 °C 3 °C 988.8 hPa WSW 16 km/h 29 km/h 83% 0.0 mm 0 W/m2
19:31 5 °C 3 °C 988.8 hPa WNW 16 km/h 29 km/h 83% 0.0 mm 0 W/m2
19:38 5 °C 3 °C 988.8 hPa WSW 19 km/h 26 km/h 84% 0.0 mm 0 W/m2
19:43 5 °C 2 °C 988.8 hPa WSW 14 km/h 24 km/h 84% 0.0 mm 0 W/m2
19:49 5 °C 2 °C 988.8 hPa West 18 km/h 27 km/h 84% 0.0 mm 0 W/m2
19:53 5 °C 2 °C 989.2 hPa West 19 km/h 27 km/h 84% 0.0 mm 0 W/m2
19:56 5 °C 2 °C 989.2 hPa SW 16 km/h 24 km/h 84% 0.0 mm 0 W/m2
20:01 5 °C 2 °C 989.2 hPa WSW 16 km/h 24 km/h 84% 0.0 mm 0 W/m2
20:06 5 °C 2 °C 989.5 hPa West 14 km/h 24 km/h 84% 0.0 mm 0 W/m2
20:10 5 °C 2 °C 989.5 hPa West 18 km/h 24 km/h 84% 0.0 mm 0 W/m2
20:17 5 °C 2 °C 989.8 hPa WNW 14 km/h 23 km/h 85% 0.0 mm 0 W/m2
20:22 5 °C 2 °C 990.2 hPa WSW 11 km/h 13 km/h 85% 0.0 mm 0 W/m2
20:26 5 °C 2 °C 990.2 hPa WSW 8 km/h 16 km/h 85% 0.0 mm 0 W/m2
20:32 5 °C 2 °C 990.2 hPa WSW 10 km/h 19 km/h 84% 0.0 mm 0 W/m2
20:39 4 °C 2 °C 990.5 hPa West 6 km/h 14 km/h 84% 0.0 mm 0 W/m2
20:44 4 °C 2 °C 990.5 hPa West 14 km/h 16 km/h 84% 0.0 mm 0 W/m2
20:49 4 °C 2 °C 990.5 hPa West 9 km/h 16 km/h 84% 0.0 mm 0 W/m2
20:54 5 °C 2 °C 990.5 hPa West 5 km/h 13 km/h 84% 0.0 mm 0 W/m2
20:58 4 °C 2 °C 990.5 hPa WNW 5 km/h 10 km/h 84% 0.0 mm 0 W/m2
21:01 5 °C 2 °C 990.5 hPa West 10 km/h 13 km/h 84% 0.0 mm 0 W/m2
21:12 5 °C 2 °C 990.2 hPa WNW 11 km/h 14 km/h 84% 0.0 mm 0 W/m2
21:20 5 °C 2 °C 990.2 hPa West 14 km/h 16 km/h 84% 0.0 mm 0 W/m2
21:28 4 °C 2 °C 990.2 hPa WSW 10 km/h 13 km/h 84% 0.0 mm 0 W/m2
21:34 4 °C 2 °C 990.2 hPa WSW 10 km/h 16 km/h 85% 0.0 mm 0 W/m2
21:43 4 °C 2 °C 990.2 hPa West 12 km/h 16 km/h 85% 0.0 mm 0 W/m2
21:49 4 °C 2 °C 990.2 hPa WSW 11 km/h 18 km/h 85% 0.0 mm 0 W/m2
21:53 4 °C 2 °C 990.2 hPa WSW 9 km/h 18 km/h 85% 0.0 mm 0 W/m2
22:03 4 °C 2 °C 990.5 hPa West 8 km/h 18 km/h 85% 0.0 mm 0 W/m2
22:08 4 °C 2 °C 990.5 hPa West 6 km/h 11 km/h 84% 0.0 mm 0 W/m2
22:11 4 °C 2 °C 990.5 hPa West 3 km/h 8 km/h 84% 0.0 mm 0 W/m2
22:17 4 °C 2 °C 990.5 hPa Calm     84% 0.0 mm 0 W/m2
22:24 4 °C 2 °C 990.9 hPa Calm     84% 0.0 mm 0 W/m2
22:29 4 °C 2 °C 990.9 hPa Calm     84% 0.0 mm 0 W/m2
22:31 4 °C 2 °C 990.9 hPa Calm     84% 0.0 mm 0 W/m2
22:36 4 °C 2 °C 990.5 hPa West 5 km/h 6 km/h 84% 0.0 mm 0 W/m2
22:41 4 °C 2 °C 990.5 hPa West 5 km/h 6 km/h 84% 0.0 mm 0 W/m2
22:45 4 °C 2 °C 990.5 hPa West 6 km/h 6 km/h 85% 0.0 mm 0 W/m2
22:54 4 °C 2 °C 990.5 hPa WSW 9 km/h 13 km/h 85% 0.0 mm 0 W/m2
22:59 4 °C 2 °C 990.5 hPa WSW 3 km/h 10 km/h 86% 0.0 mm 0 W/m2
23:04 4 °C 2 °C 990.5 hPa Calm     86% 0.0 mm 0 W/m2
23:09 3 °C 1 °C 990.5 hPa Calm     86% 0.0 mm 0 W/m2
23:19 3 °C 2 °C 990.9 hPa Calm     87% 0.0 mm 0 W/m2
23:24 3 °C 1 °C 990.9 hPa Calm     87% 0.0 mm 0 W/m2
23:28 3 °C 1 °C 990.9 hPa Calm     87% 0.0 mm 0 W/m2
23:33 3 °C 1 °C 990.9 hPa Calm     87% 0.0 mm 0 W/m2
23:38 3 °C 1 °C 990.9 hPa Calm     87% 0.0 mm 0 W/m2
23:44 3 °C 1 °C 990.9 hPa WSW 2 km/h 6 km/h 87% 0.0 mm 0 W/m2
23:47 3 °C 1 °C 990.9 hPa WSW 3 km/h 6 km/h 88% 0.0 mm 0 W/m2
23:52 3 °C 1 °C 990.9 hPa Calm   5 km/h 88% 0.0 mm 0 W/m2
23:57 3 °C 1 °C 990.5 hPa Calm     88% 0.0 mm 0 W/m2
Compliments of Weather Underground - 4 mb